Wind_Speed
25 22 21 21 23 24 21 19 17 16 16 16 16 15 14 15 16 16 16 15 15 15 14 14 15 14 16 14 13 12 12 12
23 23 23 22 22 25 26 25 24 21 17 16 16 17 17 15 15 16 17 17 16 17 15 15 15 15 18 14 16 14 14 12
22 22 22 20 19 22 25 27 26 25 25 22 19 17 18 18 17 15 17 19 19 19 18 16 16 17 18 17 18 15 15 14
26 23 23 22 20 21 24 26 27 28 28 27 25 22 19 19 20 19 16 18 20 22 21 19 17 18 18 18 19 17 16 14
23 24 25 25 25 24 23 27 27 29 30 31 30 28 26 21 20 22 20 18 19 22 23 21 19 20 20 19 19 20 20 16
21 21 23 26 28 29 29 27 28 29 33 33 34 33 31 28 24 23 23 22 20 22 23 24 22 22 21 22 21 21 20 18
21 21 22 24 27 30 32 33 32 30 30 33 37 37 37 36 32 28 26 25 24 22 23 25 26 24 22 23 23 20 22 20
21 21 23 25 25 27 29 32 34 34 34 34 36 39 39 41 39 36 31 29 27 26 25 25 28 28 24 23 23 21 22 21
21 24 29 31 31 30 29 31 33 35 36 37 38 41 42 44 44 43 39 34 31 29 29 27 27 31 29 25 24 24 23 23
22 29 34 36 36 33 33 33 32 34 37 39 42 44 45 47 47 47 45 42 37 34 32 30 29 30 31 27 25 26 26 25
26 34 39 42 44 40 37 37 36 36 37 39 39 43 48 50 51 50 48 47 44 41 37 34 32 31 31 28 26 28 29 28
33 39 43 47 49 45 42 42 43 43 42 41 41 41 44 50 55 56 53 52 50 46 44 40 36 33 31 30 29 30 30 32
38 43 45 50 51 48 43 43 43 45 44 46 43 47 48 52 55 58 55 56 55 51 47 45 40 38 34 31 32 33 34 34
42 46 50 52 53 48 47 49 49 50 51 49 50 49 50 51 54 57 56 54 57 58 53 50 48 44 41 36 37 37 38 38
44 48 52 54 52 45 43 42 44 45 47 47 41 37 40 42 47 52 56 59 57 58 62 54 54 50 47 44 43 41 40 40
46 49 53 54 49 45 46 48 47 45 48 42 36 35 38 40 42 45 51 57 60 60 61 61 55 56 51 50 46 43 40 39
46 47 51 48 44 43 45 47 45 46 48 43 39 37 36 38 37 43 50 52 53 57 63 65 61 59 58 52 50 46 44 39
43 44 44 43 41 40 42 45 43 43 50 43 40 39 42 43 41 45 49 55 54 52 59 69 68 59 63 59 55 50 43 41
40 41 40 40 38 38 40 42 42 45 51 46 32 34 43 42 44 49 49 52 56 50 53 65 64 72 63 69 59 54 48 41
40 41 40 39 38 38 39 41 42 44 50 41 36 42 41 42 42 42 43 47 51 49 50 61 67 69 69 70 62 59 54 43
Wind_Direction
299 293 285 267 249 242 245 251 260 268 277 284 289 289 292 297 299 297 294 289 281 277 273 270 264 257 259 258 251 247 241 240
298 291 286 276 260 249 248 249 250 252 259 270 279 286 286 286 289 292 290 289 284 281 275 270 265 258 259 252 252 238 239 234
299 291 288 287 280 265 257 256 257 259 258 253 259 269 277 281 280 280 285 287 287 286 282 272 264 257 257 260 252 240 241 256
297 296 293 289 279 269 268 264 263 265 266 263 257 255 260 271 278 279 276 282 287 289 287 278 266 262 256 255 259 251 245 255
295 296 291 286 288 283 271 267 265 269 270 270 268 260 254 252 263 274 275 272 278 282 285 283 268 260 257 254 256 252 247 250
290 290 291 290 288 285 284 276 269 264 264 268 268 267 262 252 248 257 265 269 268 273 280 282 272 261 260 258 254 250 246 247
303 297 292 287 287 288 288 287 283 275 266 263 263 263 266 263 253 245 252 260 264 266 271 277 276 267 258 257 259 247 239 243
306 313 318 311 301 292 288 286 286 283 277 269 264 264 261 261 261 254 245 248 254 259 262 268 272 268 258 253 256 244 233 237
311 325 327 323 313 305 298 292 287 285 283 278 271 265 262 259 259 259 254 247 245 249 253 258 264 272 266 254 248 239 227 230
307 316 320 324 320 311 308 303 297 293 290 288 284 274 266 261 257 255 255 250 248 244 247 250 254 264 270 256 247 235 228 224
307 316 324 324 323 316 310 308 305 303 297 289 283 279 276 269 262 254 251 250 247 246 244 246 248 254 264 258 241 235 230 225
303 316 320 323 321 318 313 311 309 307 306 299 292 285 278 271 267 262 254 247 243 242 242 240 245 250 256 256 240 234 229 226
302 310 316 317 319 317 313 313 311 311 309 300 291 288 284 277 265 259 256 252 245 239 238 242 237 241 242 241 235 231 232 228
303 308 313 317 320 319 316 316 316 314 313 308 298 288 283 277 271 257 253 252 250 243 234 235 237 233 237 237 234 232 229 230
302 309 315 319 320 317 315 314 313 317 315 307 300 293 289 283 265 262 256 254 252 249 241 231 234 234 232 234 231 235 231 231
303 308 316 320 320 317 317 317 314 316 321 306 299 292 289 286 278 271 258 256 256 246 243 235 232 231 232 232 235 239 243 235
302 313 317 320 321 315 315 315 311 314 314 297 291 289 290 288 284 275 266 260 255 248 238 239 233 228 229 231 232 234 240 234
310 319 319 321 319 315 309 312 316 315 315 300 292 290 296 291 285 282 274 261 254 248 238 236 231 232 224 230 231 232 233 236
319 319 320 319 318 315 314 318 320 316 316 311 293 289 299 295 289 280 273 264 256 245 239 233 234 229 225 226 227 227 232 235
319 319 320 320 321 319 320 323 320 317 321 312 301 301 309 300 286 277 273 263 254 248 238 230 228 227 231 224 223 224 228 225
Height
3146 3145 3144 3143 3142 3141 3141 3142 3142 3142 3142 3142 3142 3141 3140 3140 3139 3138 3137 3136 3135 3134 3134 3133 3133 3132 3131 3133 3132 3133 3133 3133
3143 3142 3141 3140 3140 3139 3138 3137 3136 3136 3137 3138 3139 3139 3138 3137 3136 3136 3136 3135 3134 3133 3132 3131 3132 3131 3130 3130 3131 3130 3131 3132
3139 3138 3136 3137 3138 3137 3136 3135 3134 3134 3134 3133 3134 3135 3135 3134 3133 3132 3133 3133 3132 3131 3130 3129 3129 3129 3129 3129 3129 3128 3129 3130
3134 3135 3134 3134 3133 3133 3132 3131 3131 3132 3132 3131 3130 3129 3129 3130 3130 3130 3129 3130 3130 3129 3128 3127 3126 3126 3126 3127 3127 3127 3127 3128
3134 3133 3131 3129 3129 3129 3129 3128 3128 3128 3128 3128 3127 3126 3124 3123 3125 3126 3126 3126 3126 3125 3125 3124 3124 3122 3123 3123 3124 3124 3125 3126
3132 3129 3128 3126 3124 3123 3122 3123 3123 3123 3122 3122 3122 3122 3121 3119 3118 3119 3121 3122 3122 3121 3121 3121 3120 3119 3120 3120 3119 3121 3122 3123
3128 3126 3125 3123 3121 3119 3118 3117 3116 3117 3117 3117 3115 3115 3116 3115 3113 3112 3114 3116 3117 3116 3117 3117 3116 3115 3115 3116 3116 3117 3119 3120
3122 3121 3120 3118 3117 3116 3114 3112 3110 3109 3109 3109 3109 3107 3107 3107 3107 3107 3107 3108 3110 3111 3111 3112 3111 3111 3111 3111 3112 3113 3115 3117
3118 3117 3115 3113 3111 3110 3109 3107 3105 3103 3101 3100 3100 3099 3098 3098 3098 3100 3101 3101 3102 3104 3105 3106 3106 3106 3107 3106 3108 3109 3111 3112
3115 3113 3111 3108 3105 3103 3101 3099 3098 3096 3095 3093 3091 3089 3088 3087 3087 3090 3093 3094 3095 3096 3097 3099 3100 3100 3101 3102 3103 3104 3107 3108
3112 3110 3107 3104 3101 3096 3093 3090 3088 3087 3085 3083 3081 3079 3077 3076 3076 3078 3081 3083 3085 3088 3090 3091 3092 3094 3094 3097 3096 3098 3101 3104
3107 3104 3100 3097 3092 3088 3085 3082 3079 3075 3074 3072 3069 3068 3066 3064 3063 3064 3068 3071 3072 3076 3081 3083 3086 3088 3088 3090 3091 3092 3095 3097
3101 3098 3094 3090 3085 3080 3078 3074 3071 3069 3064 3060 3058 3055 3053 3050 3050 3050 3053 3056 3060 3064 3069 3075 3078 3080 3081 3082 3084 3085 3088 3090
3096 3092 3088 3082 3076 3071 3066 3061 3059 3055 3049 3046 3043 3040 3038 3035 3033 3036 3038 3041 3046 3051 3055 3061 3067 3070 3073 3075 3076 3079 3080 3083
3090 3086 3080 3075 3069 3065 3061 3058 3054 3047 3041 3034 3028 3025 3021 3019 3018 3018 3023 3026 3030 3036 3042 3048 3052 3060 3062 3065 3066 3068 3070 3075
3083 3080 3073 3067 3061 3055 3051 3044 3040 3036 3030 3024 3020 3017 3013 3008 3007 3005 3006 3011 3012 3021 3027 3034 3040 3044 3053 3055 3059 3063 3064 3066
3078 3072 3065 3058 3053 3049 3042 3038 3033 3028 3021 3013 3009 3007 3003 3000 2996 2994 2992 2992 2996 3002 3011 3016 3024 3029 3036 3045 3049 3053 3057 3059
3070 3062 3057 3051 3048 3044 3038 3030 3023 3016 3009 3001 2996 2993 2989 2987 2984 2980 2979 2978 2978 2984 2992 3000 3009 3013 3022 3029 3036 3043 3048 3053
3060 3056 3050 3046 3043 3038 3031 3021 3013 3007 2999 2987 2985 2982 2979 2973 2970 2967 2962 2961 2961 2966 2973 2981 2992 3002 3003 3014 3025 3032 3038 3045
3054 3049 3045 3040 3035 3030 3022 3012 3006 2999 2991 2980 2975 2970 2967 2962 2956 2951 2948 2946 2946 2949 2955 2964 2976 2984 2988 2985 3007 3021 3027 3033